Regional Weather Roundup
Issued by NWS Austin/San Antonio, TX

Current Version | Previous Version | Text Only | Print | Product List | Glossary On
Versions: 1 2 3 4 5 6 7 8 9 10 11 12 13 14 15 16 17 18 19 20 21 22 23 24 25 26 27 28 29 30 31 32 33 34 35 36 37 38 39 40 41 42 43 44 45 46 47 48 49 50
000
ASUS44 KEWX 131310
RWREWX
SOUTH TEXAS REGIONAL WEATHER ROUNDUP
NATIONAL WEATHER SERVICE AUSTIN/SAN ANTONIO TX
800 AM CDT SUN JUN 13 2021

NOTE: "FAIR" INDICATED FEW OR NO CLOUDS BELOW 12,000 FEET WITH NO
SIGNIFICANT WEATHER AND/OR OBSTRUCTIONS TO VISIBILITY.

* - THESE STATIONS ARE NOT NWS OR FAA STATIONS...AND ARE NOT SUBJECT
    TO NWS AND FAA QUALITY CONTROL.

TXZ171-172-183>190-131400-
TEXAS HILL COUNTRY AND EDWARDS PLATEAU

CITY           SKY/WX    TMP DP  RH WIND       PRES   REMARKS
JUNCTION       SUNNY     73  67  81 NW5       30.07R
*LLANO         SUNNY     73  72  94 CALM      30.03R
BURNET         SUNNY     75  71  87 SW3       30.06R
*HORSESHOE BAY SUNNY     75  72  88 MISG      30.04R
*LAGO VISTA    SUNNY     78  73  83 SW3       30.04R
*KERRVILLE     SUNNY     73  71  91 CALM      30.05R
*FREDERICKSBRG CLOUDY   N/A N/A N/A CALM      30.06R
*ROCKSPRINGS     N/A     73  72  94 MISG      30.11R
*BOERNE        CLOUDY    72  72 100 CALM      30.04R
*CASTROVILLE   CLOUDY    77  76  97 CALM      30.03R
HONDO          SUNNY     74  72  93 CALM      30.01R
*UVALDE        SUNNY     73  73 100 E6        30.03R
DEL RIO        SUNNY     81  73  76 E8        29.98R
*LAUGHLIN AFB  SUNNY     77  72  85 SE9       29.99R
*SPOFFORD      SUNNY     76  76 100 E6        29.94R
*EAGLE PASS    SUNNY     75  72  88 E6        29.98S
CARRIZO SPRGS  SUNNY    N/A N/A N/A CALM      29.97S
$$

TXZ173-191>194-202-209-217>225-228-131400-
CENTRAL AND SOUTH CENTRAL TEXAS

CITY           SKY/WX    TMP DP  RH WIND       PRES   REMARKS
GEORGETOWN     SUNNY     76  73  91 CALM      30.03R
*TAYLOR        SUNNY     78  77  96 SW3       30.01R
AUSTIN/BERGSTM MOSUNNY   76  74  93 CALM      30.00R
AUSTIN/MABRY   SUNNY     77  72  84 CALM      30.02R
*PFLUGERVILLE  SUNNY     77  75  94 CALM      30.00R
SAN MARCOS     SUNNY     76  76 100 SW5       30.02S
NEW BRAUNFELS  SUNNY     76  75  97 CALM      30.00S
*RANDOLPH AFB  CLOUDY    75  75 100 CALM      30.01R
*SEGUIN        SUNNY     75  74  96 CALM      30.05R
SAN ANTONIO    CLOUDY    77  73  87 SW3       30.02R
STINSON FIELD  CLOUDY    79  74  84 SW3       29.99R
*KELLY FIELD   PTSUNNY   77  75  93 CALM      30.00R
*PLEASANTON    MOSUNNY   77  74  91 CALM      30.01R
*KENEDY        CLOUDY    77  73  89 CALM      30.02R
*LA GRANGE     SUNNY     79  79 100 CALM      29.99R
*GIDDINGS      SUNNY     78  74  90 SW5       30.01S
*GONZALES      MOSUNNY   77  77  99 CALM      30.01R
$$

TXZ163>164-176>182-195>201-210>213-226-227-235-131400-
SOUTHEAST TEXAS

CITY           SKY/WX    TMP DP  RH WIND       PRES   REMARKS
COLLEGE STN    SUNNY     80  75  84 SW3       30.00R
*BRYAN         SUNNY     79  77  94 W5        30.01R
*CALDWELL      SUNNY     79  75  90 SW3       30.00S
*CROCKETT      MOSUNNY   77  77 100 CALM      29.99R
*BRENHAM       MOSUNNY   80  77  92 SW3       30.01R
HUNTSVILLE     SUNNY     81  80  97 VRB6      29.99R HX  91
CONROE         SUNNY     81  76  84 W7        29.99R
HOUSTON BUSH   PTSUNNY   83  75  77 W6        29.98R HX  90
HOUSTON HOBBY  PTSUNNY   83  76  79 W7        29.98R HX  91
*HOUSTON SW AP PTSUNNY   79  78  95 CALM      29.99R
PEARLAND       PTSUNNY   81  77  88 W3        30.00R
HOUSTON HOOKS  PTSUNNY   82  76  81 W8        29.99R
ELLINGTON FLD    N/A     82  77  83 W14       29.98R HX  91
SUGAR LAND     PTSUNNY   81  77  88 W5        29.98R
*HOUSTON EXEC  PTSUNNY   79  79 100 NW3       30.00S
*CLEVELAND MUN PTSUNNY   80  77  91 NW3       29.99S
*WHARTON       CLOUDY    77  75  93 CALM      30.00R
*COLUMBUS      PTSUNNY   76  75  97 CALM      30.01R
*EAGLE LAKE    SUNNY     78  76  94 CALM      29.99S
$$

TXZ214>216-236>238-131400-
THE UPPER TEXAS COAST

CITY           SKY/WX    TMP DP  RH WIND       PRES   REMARKS
*ORANGE        SUNNY     82  76  82 W5        29.99R HX  90
PORT ARTHUR    MOSUNNY   81  78  91 W7        29.97R
GALVESTON      MOSUNNY   85  76  74 W9        29.98R HX  94
ANGLETON       CLOUDY    79  76  90 CALM      29.98R
*BAY CITY      NOT AVBL
PALACIOS       CLOUDY    77  77 100 N6        29.98R
$$

TXZ229>234-239>247-131400-
TEXAS COASTAL BEND AND RIO GRANDE PLAINS

CITY           SKY/WX    TMP DP  RH WIND       PRES   REMARKS
VICTORIA       CLOUDY    77  76  96 N5        30.00R FOG
*BEEVILLE      CLOUDY    77  77 100 SW3       29.99R
ROCKPORT       MOSUNNY   80  78  94 N5        29.98R FOG
*PORT ARANSAS  CLOUDY    82  76  83 CALM      30.00R
*PORT LAVACA   CLOUDY    78  75  90 CALM      29.99R
*INGLESIDE     SUNNY     79  78  95 NE5       29.98R
CORPUS CHRISTI MOSUNNY   77  77 100 NW3       29.97R
CORPUS NAS     SUNNY     82  77  84 N3        29.98R HX  90
*ROBSTOWN      CLOUDY    78  77  98 CALM      29.99R
ALICE          FOG       76  76 100 CALM      29.98R VSB 1/4
KINGSVILLE NAS FOG       75  74  96 N5        29.98R VSB 1/4
COTULLA        NOT AVBL
LAREDO         SUNNY     77  73  87 SE5       29.98R
$$

TXZ248>255-131400-
DEEP SOUTH TEXAS

CITY           SKY/WX    TMP DP  RH WIND       PRES   REMARKS
BROWNSVILLE    SUNNY     80  77  90 CALM      29.93R
PORT ISABEL    SUNNY     79  76  90 CALM      29.94R
HARLINGEN      SUNNY     77  76  96 CALM      29.93R FOG
*HEBBRONVILLE  HAZE      73  68  84 CALM      30.00R VSB 1/4
MCALLEN        SUNNY     79  75  87 NE5       29.95R
*WESLACO       CLOUDY    76  74  95 CALM      29.94R FOG
FALFURRIAS     PTSUNNY   71  71 100 NE3       29.97R
EDINBURG       MOSUNNY   75  75 100 CALM      29.96R FOG
*ZAPATA        MOSUNNY   79  76  89 SE3       29.97R
$$

TXZ213>215-236>238-242>244-246-247-251-254-255-131400-
CMAN STATIONS

STATION/POSITION TIME  TEMP    WIND        PRES    WAVE
                       AIR SEA DIR/SP/G            HT/PER
                 (UTC) (F)     (DEG/KT/KT) (MB)    (FT/S)
NORTH JETTY/GLS  1230   83 82  310/  8/ 10 1013.6
EAGLE POINT      1230   82 87  280/  4/  6 1014.5
MORGANS POINT    1230   82 84  280/  7/ 10 1014.8
MISSION/ARANSAS  1200   79     350/  6     1015.0
PORT O`CONNOR    1230   80 88  280/  3/  3 1014.6
PORT ARANSAS     1300   81 84  280/  2/  2 1015.2
MALAQUITE BEACH  1230   85     240/  2/  3   N/A
BAFFIN BAY       1230   81 85  200/  1/  3 1014.0
PORT ISABEL      1230   79 82  240/  2/  3 1014.7
$$



USA.gov is the U.S. government's official web portal to all federal, state and local government web resources and services.